When you browse on this site, cookies collect data to enhance your experience and personalize the content and advertising you see.
Visit our Privacy Policy to learn more. By continuing to use the site, you agree to this use of cookies and data.
  • In Lithuania
  • List of Countries
  • For 7 days
  • Water Temperature
  • Satellite Maps
  • Weather Map
  • Weather Widgets
  • user-avatar
    Login

    Hourly Weather Salzburg

    Today, 24 March, Sunday

    Time Temperature Precipitation Wind Pressure Humidity
    00:00 +1°C° 0 mm 1 mps 629 mmHg 90%
    01:00 -1°C° 0 mm 2 mps 629 mmHg 88%
    02:00 -1°C° 0 mm 2 mps 629 mmHg 88%
    03:00 -1°C° 0 mm 2 mps 629 mmHg 87%
    04:00 -2°C° 0 mm 2 mps 628 mmHg 87%
    05:00 -1°C° 0 mm 2 mps 628 mmHg 86%
    06:00 -1°C° 0 mm 2 mps 628 mmHg 85%
    07:00 +1°C° 0 mm 1 mps 628 mmHg 84%
    08:00 +4°C° 0 mm 1 mps 629 mmHg 80%
    09:00 +6°C° 0 mm 1 mps 630 mmHg 75%
    10:00 +8°C° 0 mm 0 mps 630 mmHg 71%
    11:00 +9°C° 0 mm 0 mps 630 mmHg 68%
    12:00 +11°C° 0 mm 1 mps 630 mmHg 66%
    13:00 +11°C° 0 mm 1 mps 630 mmHg 63%
    14:00 +11°C° 0 mm 1 mps 629 mmHg 67%
    15:00 +10°C° 0 mm 1 mps 629 mmHg 71%
    16:00 +10°C° 0 mm 1 mps 628 mmHg 74%
    17:00 +8°C° 0 mm 1 mps 627 mmHg 81%
    18:00 +5°C° 0 mm 1 mps 626 mmHg 87%
    19:00 +2°C° 0 mm 0 mps 626 mmHg 93%
    20:00 +3°C° 0.1 mm 1 mps 626 mmHg 93%
    21:00 +3°C° 0.1 mm 1 mps 626 mmHg 94%
    22:00 +3°C° 0.1 mm 1 mps 626 mmHg 94%
    23:00 +2°C° 0.2 mm 1 mps 626 mmHg 95%

    Tomorrow, 25 March, Monday

    Time Temperature Precipitation Wind Pressure Humidity
    00:00 +2°C° 0.2 mm 1 mps 626 mmHg 96%
    01:00 +2°C° 0.2 mm 1 mps 626 mmHg 97%
    02:00 +1°C° 0.1 mm 1 mps 625 mmHg 97%
    03:00 +1°C° 0.1 mm 1 mps 625 mmHg 97%
    04:00 +1°C° 0.1 mm 1 mps 625 mmHg 98%
    05:00 +1°C° 0.4 mm 1 mps 625 mmHg 98%
    06:00 +1°C° 0.4 mm 1 mps 625 mmHg 98%
    07:00 +1°C° 0.4 mm 1 mps 625 mmHg 97%
    08:00 +1°C° 0.5 mm 1 mps 624 mmHg 96%
    09:00 +2°C° 0.5 mm 1 mps 624 mmHg 94%
    10:00 +1°C° 0.5 mm 2 mps 624 mmHg 93%
    11:00 +1°C° 0.5 mm 2 mps 624 mmHg 92%
    12:00 -1°C° 0.5 mm 2 mps 623 mmHg 91%
    13:00 -1°C° 0.5 mm 2 mps 623 mmHg 90%
    14:00 -2°C° 0.6 mm 2 mps 622 mmHg 90%
    15:00 -2°C° 0.6 mm 2 mps 622 mmHg 91%
    16:00 -3°C° 0.6 mm 2 mps 622 mmHg 91%
    17:00 -4°C° 0.9 mm 2 mps 622 mmHg 92%
    18:00 -5°C° 0.9 mm 2 mps 622 mmHg 93%
    19:00 -5°C° 0.9 mm 2 mps 623 mmHg 95%
    20:00 -6°C° 0.5 mm 2 mps 623 mmHg 94%
    21:00 -6°C° 0.5 mm 2 mps 624 mmHg 94%
    22:00 -7°C° 0.5 mm 2 mps 624 mmHg 94%
    23:00 -7°C° 0.8 mm 2 mps 625 mmHg 94%

    Day after tomorrow, 26 March, Tuesday

    Time Temperature Precipitation Wind Pressure Humidity
    00:00 -7°C° 0.8 mm 2 mps 625 mmHg 95%
    01:00 -7°C° 0.8 mm 1 mps 625 mmHg 95%
    02:00 -7°C° 0.3 mm 1 mps 626 mmHg 95%
    03:00 -7°C° 0.3 mm 1 mps 626 mmHg 95%
    04:00 -7°C° 0.3 mm 1 mps 626 mmHg 95%
    05:00 -7°C° 0.2 mm 1 mps 626 mmHg 95%
    06:00 -7°C° 0.2 mm 1 mps 627 mmHg 94%
    07:00 -7°C° 0.2 mm 1 mps 627 mmHg 94%
    08:00 -6°C° 0.2 mm 1 mps 628 mmHg 90%
    09:00 -4°C° 0.2 mm 1 mps 628 mmHg 86%
    10:00 -3°C° 0.2 mm 1 mps 629 mmHg 83%
    11:00 -2°C° 0.1 mm 1 mps 629 mmHg 81%
    12:00 -2°C° 0.1 mm 1 mps 629 mmHg 80%
    13:00 -3°C° 0.1 mm 2 mps 629 mmHg 79%
    14:00 -1°C° 0.1 mm 1 mps 629 mmHg 80%
    15:00 -1°C° 0.1 mm 1 mps 629 mmHg 81%
    16:00 -1°C° 0.1 mm 1 mps 628 mmHg 81%
    17:00 -3°C° 0 mm 1 mps 628 mmHg 85%
    18:00 -4°C° 0 mm 1 mps 628 mmHg 89%
    19:00 -7°C° 0 mm 0 mps 628 mmHg 93%
    20:00 -7°C° 0 mm 1 mps 628 mmHg 93%
    21:00 -8°C° 0 mm 1 mps 628 mmHg 93%
    22:00 -8°C° 0 mm 1 mps 629 mmHg 94%
    23:00 -8°C° 0 mm 1 mps 628 mmHg 93%

    27 March, Wednesday

    Time Temperature Precipitation Wind Pressure Humidity
    00:00 -8°C° 0 mm 1 mps 628 mmHg 92%
    01:00 -9°C° 0 mm 1 mps 628 mmHg 92%
    02:00 -8°C° 0 mm 1 mps 628 mmHg 91%
    03:00 -8°C° 0 mm 1 mps 628 mmHg 91%
    04:00 -8°C° 0 mm 1 mps 628 mmHg 90%
    05:00 -7°C° 0.1 mm 1 mps 629 mmHg 90%
    06:00 -7°C° 0.1 mm 0 mps 629 mmHg 90%
    07:00 -6°C° 0.1 mm 0 mps 629 mmHg 90%
    08:00 -4°C° 0.2 mm 1 mps 630 mmHg 88%
    09:00 -3°C° 0.2 mm 1 mps 630 mmHg 86%
    10:00 -2°C° 0.2 mm 1 mps 631 mmHg 84%
    11:00 -1°C° 0.2 mm 1 mps 631 mmHg 83%
    12:00 -1°C° 0.2 mm 1 mps 631 mmHg 83%
    13:00 0°C° 0.2 mm 1 mps 630 mmHg 82%
    14:00 0°C° 0.1 mm 1 mps 630 mmHg 83%
    15:00 -1°C° 0.1 mm 1 mps 630 mmHg 84%
    16:00 -1°C° 0.1 mm 1 mps 630 mmHg 84%
    17:00 -2°C° 0 mm 1 mps 630 mmHg 88%
    18:00 -3°C° 0 mm 1 mps 630 mmHg 91%
    19:00 -5°C° 0 mm 0 mps 630 mmHg 95%
    20:00 -5°C° 0 mm 0 mps 630 mmHg 95%
    21:00 -4°C° 0 mm 1 mps 631 mmHg 95%
    22:00 -6°C° 0 mm 1 mps 631 mmHg 95%
    23:00 -6°C° 0 mm 1 mps 631 mmHg 95%

    28 March, Thursday

    Time Temperature Precipitation Wind Pressure Humidity
    00:00 -7°C° 0 mm 1 mps 631 mmHg 94%
    01:00 -7°C° 0 mm 1 mps 631 mmHg 94%
    02:00 -7°C° 0 mm 1 mps 630 mmHg 94%
    03:00 -7°C° 0 mm 1 mps 630 mmHg 94%
    04:00 -7°C° 0 mm 1 mps 630 mmHg 93%
    05:00 -7°C° 0 mm 1 mps 630 mmHg 92%
    06:00 -6°C° 0 mm 1 mps 631 mmHg 91%
    07:00 -4°C° 0 mm 1 mps 631 mmHg 90%
    08:00 -3°C° 0.1 mm 1 mps 632 mmHg 88%
    09:00 -1°C° 0.1 mm 1 mps 632 mmHg 85%
    10:00 +1°C° 0.1 mm 1 mps 632 mmHg 83%
    11:00 +1°C° 0.1 mm 1 mps 632 mmHg 83%
    12:00 +2°C° 0.1 mm 1 mps 632 mmHg 83%
    13:00 +2°C° 0.1 mm 1 mps 632 mmHg 83%
    14:00 +2°C° 0.1 mm 1 mps 632 mmHg 83%
    15:00 +2°C° 0.1 mm 1 mps 632 mmHg 83%
    16:00 +2°C° 0.1 mm 1 mps 631 mmHg 84%
    17:00 +1°C° 0 mm 1 mps 631 mmHg 87%
    18:00 -1°C° 0 mm 1 mps 631 mmHg 91%
    19:00 -3°C° 0 mm 0 mps 630 mmHg 95%
    20:00 -4°C° 0 mm 0 mps 631 mmHg 95%
    21:00 -3°C° 0 mm 1 mps 631 mmHg 95%
    22:00 -4°C° 0 mm 1 mps 631 mmHg 95%
    23:00 -4°C° 0 mm 1 mps 631 mmHg 95%

    29 March, Friday

    Time Temperature Precipitation Wind Pressure Humidity
    00:00 -4°C° 0 mm 1 mps 631 mmHg 94%
    01:00 -4°C° 0 mm 1 mps 631 mmHg 94%
    02:00 -6°C° 0 mm 1 mps 630 mmHg 93%
    03:00 -6°C° 0 mm 1 mps 630 mmHg 93%
    04:00 -6°C° 0 mm 1 mps 630 mmHg 92%
    05:00 -6°C° 0 mm 1 mps 631 mmHg 91%
    06:00 -4°C° 0 mm 1 mps 631 mmHg 89%
    07:00 -4°C° 0 mm 1 mps 631 mmHg 88%
    08:00 -1°C° 0 mm 1 mps 632 mmHg 84%
    09:00 +1°C° 0 mm 1 mps 632 mmHg 79%
    10:00 +3°C° 0 mm 0 mps 633 mmHg 74%
    11:00 +5°C° 0 mm 1 mps 633 mmHg 73%
    12:00 +5°C° 0 mm 1 mps 633 mmHg 72%
    13:00 +6°C° 0 mm 1 mps 633 mmHg 70%
    14:00 +6°C° 0 mm 1 mps 632 mmHg 73%
    15:00 +5°C° 0 mm 1 mps 632 mmHg 75%
    16:00 +5°C° 0 mm 1 mps 631 mmHg 78%
    17:00 +3°C° 0 mm 1 mps 631 mmHg 83%
    18:00 +1°C° 0 mm 1 mps 630 mmHg 88%
    19:00 -2°C° 0 mm 0 mps 630 mmHg 94%
    20:00 -1°C° 0 mm 1 mps 630 mmHg 93%
    21:00 -2°C° 0 mm 1 mps 630 mmHg 92%
    22:00 -4°C° 0 mm 2 mps 630 mmHg 91%
    23:00 -4°C° 0 mm 2 mps 630 mmHg 90%
    Show more